Pittsfield, MA

11:54 AM EDT on June 27, 2017 (GMT -0400)
Pittsfield Municipal

Weather History for KPSF - February, 2014

Change the Weather History Date:

Tuesday, February 25, 2014

  Actual Average Record
Temperature  
Mean Temperature 16 °F 26 °F  
Max Temperature 21 °F 35 °F 65 °F (2017)
Min Temperature 11 °F 17 °F -4 °F (1934)
Degree Days  
Heating Degree Days 49 39  
Month to date heating degree days 1104 1041  
Since 1 July heating degree days 5383 5266  
Cooling Degree Days 0 0  
Month to date cooling degree days 0 0  
Year to date cooling degree days 0 0  
Moisture  
Dew Point 6 °F    
Average Humidity 64    
Maximum Humidity 73    
Minimum Humidity 54    
Precipitation  
Precipitation T in 0.09 in 0.96 in (2017)
Month to date precipitation 2.97 2.39  
Year to date precipitation 6.32 5.31  
Sea Level Pressure  
Sea Level Pressure 29.93 in    
Wind  
Wind Speed 10 mph (West)    
Max Wind Speed 20 mph    
Max Gust Speed 26 mph    
Visibility 8 miles    
Events Snow    
T = Trace of Precipitation, MM = Missing Value Source: NWS Daily Summary

Daily Weather History Graph

Daily Weather History Graph

Search for Another Location

Airport or City:

Trip Planner

Search our weather history database for the weather conditions in past years. The results will help you decide how hot, cold, wet, or windy it might be!

Date:

Astronomy

Feb. 25, 2014 Rise Set
Actual Time 6:34 AM EST 5:38 PM EST
Civil Twilight 6:06 AM EST 6:06 PM EST
Nautical Twilight 5:34 AM EST 6:39 PM EST
Astronomical Twilight 5:01 AM EST 7:11 PM EST
Moon 3:30 AM EST (2/25) 1:37 PM EST (2/25)
Length of Visible Light 11h 59m
Length of Day
11h 03m
Waning Crescent, 18% of the Moon is Illuminated
Feb 25
Waning Crescent
Mar 1
New
Mar 8
First Quarter
Mar 16
Full
Mar 23
Last Quarter

Hourly Weather History & Observations

Time (EST) Temp. Windchill Dew Point Humidity Pressure Visibility Wind Dir Wind Speed Gust Speed Precip Events Conditions
12:54 AM 16.0 °F 2.9 °F 3.9 °F 59% 29.97 in 10.0 mi West 11.5 mph 19.6 mph N/A   Overcast
1:54 AM 15.1 °F 2.5 °F 3.0 °F 59% 29.97 in 10.0 mi West 10.4 mph - N/A   Mostly Cloudy
2:54 AM 15.1 °F 1.8 °F 3.9 °F 61% 29.97 in 10.0 mi West 11.5 mph - N/A   Scattered Clouds
3:06 AM 15.1 °F 3.3 °F 3.9 °F 61% 29.90 in 10.0 mi West 9.2 mph - N/A   Mostly Cloudy
3:54 AM 15.1 °F 5.2 °F 5.0 °F 64% 29.97 in 10.0 mi West 6.9 mph - N/A   Overcast
4:39 AM 14.0 °F 1.2 °F 8.1 °F 77% 29.90 in 1.8 mi NNW 10.4 mph - 0.00 in Snow Light Snow
4:46 AM 14.0 °F 0.5 °F 8.1 °F 77% 29.91 in 3.0 mi WNW 11.5 mph - 0.00 in Snow Light Snow
4:54 AM 14.0 °F 2.0 °F 7.0 °F 74% 29.98 in 5.0 mi WNW 9.2 mph - 0.00 in Snow Light Snow
5:22 AM 12.9 °F 1.6 °F 7.0 °F 77% 29.91 in 10.0 mi WNW 8.1 mph - 0.00 in   Overcast
5:54 AM 12.0 °F 1.5 °F 3.0 °F 67% 29.98 in 10.0 mi WNW 6.9 mph - 0.00 in   Partly Cloudy
6:54 AM 10.9 °F 1.4 °F 3.9 °F 73% 29.99 in 10.0 mi West 5.8 mph - N/A   Clear
7:54 AM 12.0 °F 1.5 °F 3.9 °F 70% 30.00 in 10.0 mi West 6.9 mph - N/A   Clear
8:54 AM 12.9 °F 1.6 °F 5.0 °F 71% 30.00 in 10.0 mi West 8.1 mph - N/A   Scattered Clouds
9:54 AM 15.1 °F 3.3 °F 6.1 °F 68% 29.97 in 10.0 mi WNW 9.2 mph - N/A   Scattered Clouds
10:09 AM 16.0 °F 3.6 °F 6.1 °F 65% 29.90 in 10.0 mi West 10.4 mph - N/A   Mostly Cloudy
10:54 AM 18.0 °F 6.1 °F 7.0 °F 62% 29.96 in 10.0 mi West 10.4 mph 21.9 mph N/A   Mostly Cloudy
11:05 AM 19.0 °F 5.0 °F 7.0 °F 59% 29.88 in 10.0 mi West 15.0 mph 20.7 mph N/A   Mostly Cloudy
11:54 AM 19.0 °F 6.1 °F 7.0 °F 59% 29.94 in 10.0 mi WNW 12.7 mph - N/A   Overcast
12:36 PM 19.0 °F 5.6 °F 9.0 °F 65% 29.85 in 5.0 mi WNW 13.8 mph 20.7 mph 0.00 in Snow Light Snow
12:54 PM 19.0 °F 7.5 °F 10.9 °F 71% 29.92 in 4.0 mi WNW 10.4 mph - 0.00 in   Haze
1:08 PM 18.0 °F 4.8 °F 10.0 °F 71% 29.84 in 2.0 mi WNW 12.7 mph - 0.00 in Snow Light Snow
1:17 PM 19.0 °F 6.8 °F 10.0 °F 68% 29.84 in 1.5 mi West 11.5 mph - 0.00 in Snow Light Snow
1:32 PM 19.0 °F 5.0 °F 10.9 °F 71% 29.84 in 3.0 mi West 15.0 mph - 0.00 in Snow Light Snow
1:46 PM 19.9 °F 5.7 °F 10.0 °F 65% 29.83 in 5.0 mi West 16.1 mph - 0.00 in   Haze
1:54 PM 19.9 °F 7.3 °F 10.0 °F 65% 29.90 in 6.0 mi West 12.7 mph - 0.00 in   Haze
2:54 PM 19.9 °F 7.9 °F 8.1 °F 60% 29.89 in 10.0 mi West 11.5 mph 20.7 mph 0.00 in   Overcast
3:54 PM 21.0 °F 5.7 °F 8.1 °F 57% 29.89 in 9.0 mi West 19.6 mph 26.5 mph N/A   Overcast
4:54 PM 19.0 °F 5.6 °F 7.0 °F 59% 29.90 in 10.0 mi West 13.8 mph 19.6 mph 0.00 in   Overcast
5:54 PM 18.0 °F 6.1 °F 6.1 °F 60% 29.93 in 10.0 mi WNW 10.4 mph - N/A   Overcast
6:54 PM 17.1 °F 3.6 °F 3.9 °F 56% 29.94 in 10.0 mi West 12.7 mph - N/A   Scattered Clouds
7:54 PM 15.1 °F 2.5 °F 3.0 °F 59% 29.94 in 10.0 mi West 10.4 mph - N/A   Clear
8:54 PM 14.0 °F 2.9 °F 1.9 °F 59% 29.96 in 10.0 mi WNW 8.1 mph - N/A   Clear
9:54 PM 14.0 °F -0.2 °F 1.9 °F 59% 29.96 in 10.0 mi West 12.7 mph - N/A   Mostly Cloudy
10:54 PM 12.9 °F 3.8 °F 1.0 °F 59% 29.94 in 10.0 mi WSW 5.8 mph - N/A   Clear
11:54 PM 10.9 °F 4.7 °F 1.0 °F 64% 29.93 in 10.0 mi SSW 3.5 mph - N/A   Clear